Home   Weather   Selkirk   Past weeks
Flag for Canada

Past Weather in Selkirk, Manitoba, Canada — Yesterday and Last 2 Weeks

Now
41 °F

Quite cool.


Feels Like: 37 °F
Forecast: N/A
Wind: 6 mph from Southwest

Location: Winnipeg The Forks Man

Current Time: Mar 22, 2019 at 6:19:50 pm

Latest Report: Mar 22, 2019 at 5:00 pm


Visibility: N/A

Pressure: 30.24 "Hg

Humidity: 48%

Dew Point: 23 °F

Location of SelkirkLocation

Past Weather in Selkirk — Graph

°F

Selkirk Temperature Yesterday

Maximum temperature yesterday: 45 °F (at 4:00 pm)
Minimum temperature yesterday: 31 °F (at 1:00 am)
Average temperature yesterday: 39 °F

High & Low Weather Summary for the Past Weeks

 TemperatureHumidityPressure
High45 °F (Mar 21, 4:00 pm)96% (Mar 13, 12:00 am)30.36 "Hg (Mar 13, 12:00 am)
Low3 °F (Mar 11, 8:00 am)47% (Mar 21, 2:00 pm)29.55 "Hg (Mar 12, 8:00 pm)
Average25 °F73%30.05 "Hg
* Reported Mar 7 4:00 pm — Mar 22 5:00 pm, Selkirk. Weather by CustomWeather, © 2019

Note: Actual official high and low records may vary slightly from our data, if they occured in-between our weather recording intervals... More about our weather records

Advertising

Selkirk Weather History for the Previous 24 Hours

Scroll right to see more
 ConditionsComfort  
Time TempWeatherWind HumidityBarometerVisibility
5:00 pm
Fri, Mar 22
41 °FQuite cool.6 mph48%30.24 "HgN/A
4:00 pm41 °FQuite cool.5 mph49%30.26 "HgN/A
3:00 pm38 °FChilly.6 mph54%30.28 "HgN/A
2:00 pm39 °FChilly.6 mph56%30.29 "HgN/A
1:00 pm39 °FChilly.1 mph53%30.29 "HgN/A
12:00 pm37 °FChilly.1 mph59%30.31 "HgN/A
11:00 am35 °FChilly.1 mph64%30.32 "HgN/A
10:00 am32 °FChilly.1 mph71%30.32 "HgN/A
9:00 am29 °FChilly.2 mph78%30.32 "HgN/A
8:00 am26 °FChilly.1 mph84%30.31 "HgN/A
7:00 am26 °FChilly.1 mph82%30.30 "HgN/A
6:00 am27 °FChilly.2 mph77%30.29 "HgN/A
5:00 am29 °FChilly.3 mph73%30.28 "HgN/A
4:00 am31 °FChilly.5 mph69%30.29 "HgN/A
3:00 am33 °FChilly.5 mph64%30.28 "HgN/A
2:00 am34 °FChilly.5 mph62%30.27 "HgN/A
1:00 am36 °FChilly.6 mph59%30.26 "HgN/A
12:00 am36 °FChilly.5 mph59%30.25 "HgN/A
11:00 pm
Thu, Mar 21
38 °FChilly.3 mph59%30.24 "HgN/A
10:00 pm39 °FChilly.7 mph60%30.23 "HgN/A
9:00 pm40 °FChilly.3 mph62%30.20 "HgN/A
8:00 pm42 °FQuite cool.3 mph59%30.19 "HgN/A
7:00 pm44 °FQuite cool.3 mph56%30.16 "HgN/A
6:00 pm45 °FCool.5 mph53%30.16 "HgN/A
Weather by CustomWeather, © 2019

See weather overview